Artesia, NM

2:58 AM MST on January 24, 2018 (GMT -0700)
Artesia Municipal

Weather History for KATS - July, 2013

Change the Weather History Date:

Sunday, July 7, 2013

  Actual Average Record
Temperature  
Mean Temperature 81 °F -  
Max Temperature 93 °F 94 °F 105 °F (1992)
Min Temperature 69 °F 63 °F 57 °F (1987)
Cooling Degree Days 16    
Growing Degree Days 31 (Base 50)    
Moisture  
Dew Point 51 °F    
Average Humidity 36    
Maximum Humidity 60    
Minimum Humidity 20    
Precipitation  
Precipitation 0.00 in - - ()
Sea Level Pressure  
Sea Level Pressure 30.01 in    
Wind  
Wind Speed 15 mph (SSE)    
Max Wind Speed 26 mph    
Max Gust Speed 36 mph    
Visibility 10 miles    
Events Rain    
Averages and records for this station are not official NWS values.
T = Trace of Precipitation, MM = Missing Value Source: NWS Daily Summary

Daily Weather History Graph

Daily Weather History Graph

Search for Another Location

Airport or City:

Trip Planner

Search our weather history database for the weather conditions in past years. The results will help you decide how hot, cold, wet, or windy it might be!

Date:

Astronomy

Jul. 07, 2013 Rise Set
Actual Time 5:56 AM MDT 8:09 PM MDT
Civil Twilight 5:27 AM MDT 8:37 PM MDT
Nautical Twilight 4:53 AM MDT 9:12 PM MDT
Astronomical Twilight 4:15 AM MDT 9:49 PM MDT
Moon 5:31 AM MDT (7/7) 7:39 PM MDT (7/7)
Length of Visible Light 15h 09m
Length of Day
14h 13m
Waning Crescent, 0% of the Moon is Illuminated
Jul 7
Waning Crescent
Jul 8
New
Jul 15
First Quarter
Jul 22
Full
Jul 29
Last Quarter

Hourly Weather History & Observations

Time (MDT) Temp. Heat Index Dew Point Humidity Pressure Visibility Wind Dir Wind Speed Gust Speed Precip Events Conditions
12:15 AM 82.4 °F - 48.2 °F 30% 29.95 in 10.0 mi SSE 23.0 mph 35.7 mph N/A   Clear
12:35 AM 80.6 °F - 46.4 °F 30% 29.95 in 10.0 mi SSE 26.5 mph 31.1 mph N/A   Clear
12:55 AM 80.6 °F - 46.4 °F 30% 29.95 in 10.0 mi SSE 19.6 mph 28.8 mph N/A   Clear
1:15 AM 80.6 °F - 46.4 °F 30% 29.95 in 10.0 mi SSE 20.7 mph 25.3 mph N/A   Clear
1:35 AM 78.8 °F - 46.4 °F 32% 29.96 in 10.0 mi SSE 18.4 mph 25.3 mph N/A   Clear
1:55 AM 78.8 °F - 46.4 °F 32% 29.97 in 10.0 mi SSE 16.1 mph 23.0 mph N/A   Scattered Clouds
2:15 AM 77.0 °F - 48.2 °F 36% 29.98 in 10.0 mi SE 13.8 mph 17.3 mph N/A   Scattered Clouds
2:35 AM 77.0 °F - 50.0 °F 39% 29.99 in 10.0 mi SE 10.4 mph - N/A   Scattered Clouds
2:55 AM 75.2 °F - 50.0 °F 41% 29.99 in 10.0 mi SSE 16.1 mph 20.7 mph N/A   Mostly Cloudy
3:15 AM 77.0 °F - 48.2 °F 36% 29.99 in 10.0 mi SSE 15.0 mph 19.6 mph N/A   Mostly Cloudy
3:35 AM 75.2 °F - 48.2 °F 38% 29.98 in 10.0 mi SSE 16.1 mph - N/A   Mostly Cloudy
3:55 AM 75.2 °F - 48.2 °F 38% 29.98 in 10.0 mi SSE 15.0 mph - N/A   Clear
4:15 AM 75.2 °F - 48.2 °F 38% 29.99 in 10.0 mi SSE 17.3 mph - N/A   Partly Cloudy
4:35 AM 75.2 °F - 50.0 °F 41% 29.99 in 10.0 mi SSE 15.0 mph 21.9 mph N/A   Mostly Cloudy
4:55 AM 73.4 °F - 51.8 °F 47% 29.98 in 10.0 mi SSE 15.0 mph - N/A   Overcast
5:15 AM 73.4 °F - 53.6 °F 50% 29.99 in 10.0 mi SSE 13.8 mph - N/A Rain Light Rain
5:35 AM 69.8 °F - 55.4 °F 60% 30.01 in 10.0 mi Calm Calm - N/A   Mostly Cloudy
5:55 AM 71.6 °F - 53.6 °F 53% 30.02 in 10.0 mi Calm Calm - N/A   Partly Cloudy
6:15 AM 71.6 °F - 55.4 °F 57% 30.03 in 10.0 mi WSW 4.6 mph - N/A   Clear
6:35 AM 71.6 °F - 55.4 °F 57% 30.03 in 10.0 mi South 6.9 mph - N/A   Clear
6:55 AM 71.6 °F - 55.4 °F 57% 30.02 in 10.0 mi SSE 8.1 mph - N/A   Clear
7:15 AM 71.6 °F - 55.4 °F 57% 30.03 in 10.0 mi SSE 5.8 mph - N/A   Clear
7:35 AM 71.6 °F - 55.4 °F 57% 30.03 in 10.0 mi SE 8.1 mph - N/A   Partly Cloudy
7:55 AM 73.4 °F - 53.6 °F 50% 30.04 in 10.0 mi South 6.9 mph - N/A   Clear
8:15 AM 73.4 °F - 53.6 °F 50% 30.04 in 10.0 mi SSE 13.8 mph - N/A   Clear
8:35 AM 73.4 °F - 53.6 °F 50% 30.05 in 10.0 mi South 13.8 mph - N/A   Clear
8:55 AM 75.2 °F - 53.6 °F 47% 30.05 in 10.0 mi SSE 16.1 mph - N/A   Clear
9:15 AM 77.0 °F - 53.6 °F 44% 30.05 in 10.0 mi SSE 13.8 mph - N/A   Clear
9:35 AM 77.0 °F - 53.6 °F 44% 30.05 in 10.0 mi SSE 13.8 mph - N/A   Clear
9:55 AM 77.0 °F - 53.6 °F 44% 30.06 in 10.0 mi SE 11.5 mph - N/A   Clear
10:15 AM 77.0 °F - 53.6 °F 44% 30.06 in 10.0 mi SE 10.4 mph 16.1 mph N/A   Clear
10:35 AM 77.0 °F - 53.6 °F 44% 30.06 in 10.0 mi SE 10.4 mph - N/A   Clear
10:55 AM 80.6 °F 80.5 °F 55.4 °F 42% 30.05 in 10.0 mi SSE 12.7 mph - N/A   Clear
11:15 AM 82.4 °F 81.7 °F 55.4 °F 39% 30.05 in 10.0 mi SE 11.5 mph 16.1 mph N/A   Clear
11:35 AM 84.2 °F 83.5 °F 57.2 °F 40% 30.05 in 10.0 mi SSE 11.5 mph 19.6 mph N/A   Clear
11:55 AM 84.2 °F 83.5 °F 57.2 °F 40% 30.04 in 10.0 mi SE 12.7 mph - N/A   Clear
12:15 PM 86.0 °F 84.5 °F 55.4 °F 35% 30.03 in 10.0 mi SE 18.4 mph 21.9 mph N/A   Clear
12:35 PM 87.8 °F 86.1 °F 55.4 °F 33% 30.03 in 10.0 mi SE 16.1 mph 20.7 mph N/A   Clear
12:55 PM 87.8 °F 86.1 °F 55.4 °F 33% 30.02 in 10.0 mi SE 12.7 mph 19.6 mph N/A   Clear
1:15 PM 89.6 °F 87.7 °F 55.4 °F 31% 30.01 in 10.0 mi SE 10.4 mph 18.4 mph N/A   Clear
1:35 PM 89.6 °F 87.3 °F 53.6 °F 29% 30.01 in 10.0 mi SE 16.1 mph 24.2 mph N/A   Clear
1:55 PM 91.4 °F - 51.8 °F 26% 30.01 in 10.0 mi SE 12.7 mph 20.7 mph N/A   Clear
2:15 PM 91.4 °F - 50.0 °F 24% 30.00 in 10.0 mi SE 16.1 mph 23.0 mph N/A   Clear
2:35 PM 91.4 °F - 50.0 °F 24% 29.99 in 10.0 mi ESE 15.0 mph 19.6 mph N/A   Clear
2:55 PM 93.2 °F - 50.0 °F 23% 29.99 in 10.0 mi ESE 18.4 mph 23.0 mph N/A   Clear
3:15 PM 93.2 °F - 50.0 °F 23% 29.99 in 10.0 mi SE 13.8 mph 19.6 mph N/A   Clear
3:35 PM 93.2 °F - 50.0 °F 23% 29.98 in 10.0 mi ESE 13.8 mph 21.9 mph N/A   Clear
3:55 PM 93.2 °F - 50.0 °F 23% 29.97 in 10.0 mi ESE 10.4 mph 24.2 mph N/A   Clear
4:15 PM 93.2 °F - 48.2 °F 21% 29.96 in 10.0 mi SE 12.7 mph - N/A   Clear
4:35 PM 93.2 °F - 48.2 °F 21% 29.96 in 10.0 mi SSE 15.0 mph 21.9 mph N/A   Clear
4:55 PM 93.2 °F - 50.0 °F 23% 29.96 in 10.0 mi SE 18.4 mph - N/A   Clear
5:15 PM 93.2 °F - 48.2 °F 21% 29.96 in 10.0 mi SE 15.0 mph 18.4 mph N/A   Clear
5:35 PM 93.2 °F - 48.2 °F 21% 29.95 in 10.0 mi SSE 17.3 mph 25.3 mph N/A   Clear
5:55 PM 93.2 °F - 46.4 °F 20% 29.96 in 10.0 mi SE 16.1 mph 24.2 mph N/A   Clear
6:15 PM 91.4 °F - 46.4 °F 21% 29.96 in 10.0 mi SE 15.0 mph 21.9 mph N/A   Clear
6:35 PM 91.4 °F - 48.2 °F 23% 29.96 in 10.0 mi SE 13.8 mph 20.7 mph N/A   Clear
6:55 PM 91.4 °F - 48.2 °F 23% 29.97 in 10.0 mi SE 12.7 mph - N/A   Clear
7:15 PM 89.6 °F - 50.0 °F 26% 29.97 in 10.0 mi SE 13.8 mph - N/A   Clear
7:35 PM 89.6 °F - 50.0 °F 26% 29.97 in 10.0 mi SE 12.7 mph - N/A   Clear
7:55 PM 86.0 °F - 50.0 °F 29% 29.98 in 10.0 mi SE 12.7 mph - N/A   Clear
8:15 PM 86.0 °F - 50.0 °F 29% 29.99 in 10.0 mi SE 13.8 mph - N/A   Clear
8:35 PM 84.2 °F - 50.0 °F 30% 30.00 in 10.0 mi SE 13.8 mph - N/A   Clear
8:55 PM 84.2 °F - 50.0 °F 30% 30.01 in 10.0 mi SSE 11.5 mph - N/A   Clear
9:15 PM 84.2 °F - 51.8 °F 33% 30.02 in 10.0 mi SSE 12.7 mph - N/A   Clear
9:35 PM 82.4 °F - 51.8 °F 35% 30.02 in 10.0 mi SSE 12.7 mph - N/A   Clear
9:55 PM 82.4 °F - 51.8 °F 35% 30.03 in 10.0 mi SE 11.5 mph - N/A   Clear
10:15 PM 82.4 °F - 51.8 °F 35% 30.04 in 10.0 mi SSE 9.2 mph - N/A   Clear
10:35 PM 80.6 °F - 51.8 °F 37% 30.05 in 10.0 mi SSE 9.2 mph - N/A   Clear
10:55 PM 80.6 °F - 51.8 °F 37% 30.05 in 10.0 mi SSE 9.2 mph - N/A   Clear
11:15 PM 78.8 °F - 53.6 °F 42% 30.06 in 10.0 mi SSE 8.1 mph - N/A   Clear
11:35 PM 77.0 °F - 53.6 °F 44% 30.06 in 10.0 mi SSE 8.1 mph - N/A   Clear
11:55 PM 77.0 °F - 53.6 °F 44% 30.06 in 10.0 mi SSE 5.8 mph - N/A   Clear